Location: Unspecified
(52.4292°N, 19.3359°E)
Time: 16:15:53
(UTC+02:00)

Transit 2A Rocket - Pass Details

Date: 25 May 2024
Orbit: 583 x 910 km, 66.7° (Epoch: 22 June)

Event Time Altitude Azimuth Distance (km) Brightness Sun altitude
Rises 11:55:32 0° 320° (NW) 3,387 8.0 57.5°
Reaches altitude 10° 11:57:55 10° 320° (NW) 2,490 7.5 57.6°
Maximum altitude 12:03:46 89° 236° (SW) 897 6.6 57.9°
Drops below altitude 10° 12:09:52 10° 143° (SE) 2,590 8.4 58.1°
Sets 12:12:24 0° 144° (SE) 3,531 8.9 58.2°
